TimeCDT,TemperatureF,Dew PointF,Humidity,Sea Level PressureIn,VisibilityMPH,Wind Direction,Wind SpeedMPH,Gust SpeedMPH,PrecipitationIn,Events,Conditions,WindDirDegrees,DateUTC
12:54 AM,37.9,37.0,97,29.87,8.0,ENE,6.9,-,0.02,Rain,Light Rain,60,2012-10-23 05:54:00
1:49 AM,37.4,37.4,100,29.78,5.0,NE,9.2,-,0.06,Rain,Light Rain,40,2012-10-23 06:49:00
1:54 AM,37.9,37.0,97,29.82,5.0,NE,8.1,-,0.06,,Overcast,40,2012-10-23 06:54:00
2:54 AM,39.0,37.9,96,29.81,7.0,NE,8.1,-,0.01,Rain,Light Rain,40,2012-10-23 07:54:00
3:54 AM,39.0,37.9,96,29.77,8.0,ENE,10.4,-,0.02,,Overcast,60,2012-10-23 08:54:00
4:54 AM,39.0,39.0,100,29.75,4.0,East,9.2,-,N/A,,Overcast,80,2012-10-23 09:54:00
5:13 AM,39.2,39.2,100,29.69,3.0,ENE,9.2,-,N/A,Thunderstorm,Overcast,70,2012-10-23 10:13:00
5:24 AM,39.2,39.2,100,29.69,2.5,East,10.4,-,N/A,Thunderstorm,Overcast,80,2012-10-23 10:24:00
5:54 AM,39.9,39.0,97,29.72,2.5,East,10.4,-,N/A,,Overcast,80,2012-10-23 10:54:00
6:03 AM,39.2,39.2,100,29.68,3.0,East,9.2,-,N/A,,Overcast,80,2012-10-23 11:03:00
6:32 AM,39.2,39.2,100,29.66,2.5,East,9.2,-,N/A,Rain,Heavy Rain,90,2012-10-23 11:32:00
6:42 AM,39.2,39.2,100,29.66,4.0,East,10.4,-,0.03,,Overcast,90,2012-10-23 11:42:00
6:54 AM,39.2,39.2,100,29.67,3.0,East,11.5,-,N/A,Rain,Rain,100,2012-10-23 11:54:00
7:54 AM,41.0,41.0,100,29.70,4.0,East,6.9,-,0.01,,Overcast,100,2012-10-23 12:54:00
8:12 AM,41.0,41.0,100,29.66,2.0,East,5.8,-,N/A,,Overcast,100,2012-10-23 13:12:00
8:23 AM,41.0,41.0,100,29.65,1.8,East,5.8,-,N/A,,Overcast,90,2012-10-23 13:23:00
8:45 AM,42.8,41.0,93,29.66,2.5,East,5.8,-,N/A,,Overcast,100,2012-10-23 13:45:00
8:54 AM,42.1,41.0,96,29.70,2.5,East,6.9,-,0.00,Rain,Light Rain,100,2012-10-23 13:54:00
9:05 AM,42.8,42.8,100,29.66,3.0,ESE,5.8,-,N/A,Rain,Light Rain,110,2012-10-23 14:05:00
9:12 AM,42.8,42.8,100,29.66,0.2,East,5.8,-,0.00,Fog-Rain,Light Rain,100,2012-10-23 14:12:00
9:54 AM,43.0,42.1,97,29.70,0.2,ESE,5.8,-,0.01,Fog,Fog,120,2012-10-23 14:54:00
10:01 AM,42.8,42.8,100,29.65,7.0,ESE,5.8,-,N/A,,Overcast,110,2012-10-23 15:01:00
10:41 AM,42.8,42.8,100,29.64,2.0,SE,3.5,-,N/A,,Overcast,130,2012-10-23 15:41:00
10:54 AM,44.1,43.0,96,29.69,2.0,ESE,3.5,-,N/A,,Overcast,120,2012-10-23 15:54:00
11:34 AM,44.6,44.6,100,29.64,1.5,Calm,Calm,-,N/A,,Overcast,0,2012-10-23 16:34:00
11:54 AM,44.1,44.1,100,29.69,1.5,Calm,Calm,-,N/A,,Overcast,0,2012-10-23 16:54:00
12:54 PM,45.0,44.1,97,29.70,1.5,WSW,4.6,-,N/A,,Overcast,250,2012-10-23 17:54:00
1:19 PM,44.6,44.6,100,29.65,0.5,West,5.8,-,N/A,Fog,Fog,270,2012-10-23 18:19:00
1:54 PM,46.0,45.0,96,29.67,0.5,West,8.1,-,N/A,Fog,Fog,280,2012-10-23 18:54:00
2:01 PM,46.4,44.6,93,29.63,2.5,WNW,6.9,-,N/A,,Overcast,290,2012-10-23 19:01:00
2:16 PM,46.4,44.6,93,29.63,2.5,WNW,8.1,-,N/A,,Mostly Cloudy,290,2012-10-23 19:16:00
2:30 PM,46.4,44.6,93,29.64,5.0,West,10.4,-,N/A,,Overcast,280,2012-10-23 19:30:00
2:54 PM,46.9,44.1,90,29.69,8.0,West,12.7,-,N/A,,Overcast,270,2012-10-23 19:54:00
3:22 PM,46.4,42.8,87,29.67,5.0,West,12.7,-,0.00,Rain,Light Rain,270,2012-10-23 20:22:00
3:54 PM,46.0,43.0,89,29.70,8.0,West,13.8,-,0.04,Rain,Light Rain,270,2012-10-23 20:54:00
4:18 PM,44.6,42.8,93,29.65,10.0,WNW,10.4,-,0.00,,Overcast,290,2012-10-23 21:18:00
4:54 PM,45.0,42.1,90,29.70,10.0,WNW,9.2,-,0.00,,Mostly Cloudy,290,2012-10-23 21:54:00
5:39 PM,44.6,39.2,81,29.70,10.0,West,17.3,24.2,N/A,,Overcast,270,2012-10-23 22:39:00
5:54 PM,43.0,39.0,86,29.75,10.0,West,19.6,-,N/A,,Overcast,270,2012-10-23 22:54:00
6:12 PM,42.8,37.4,81,29.72,10.0,West,16.1,-,N/A,,Scattered Clouds,260,2012-10-23 23:12:00
6:54 PM,39.9,37.0,89,29.78,10.0,West,15.0,-,N/A,,Partly Cloudy,260,2012-10-23 23:54:00
7:17 PM,41.0,37.4,87,29.75,10.0,West,13.8,-,N/A,,Mostly Cloudy,270,2012-10-24 00:17:00
7:54 PM,41.0,37.0,86,29.81,10.0,West,10.4,-,N/A,,Overcast,280,2012-10-24 00:54:00
8:54 PM,41.0,36.0,82,29.83,10.0,West,15.0,-,N/A,,Overcast,280,2012-10-24 01:54:00
9:28 PM,39.2,32.0,75,29.80,10.0,West,15.0,27.6,N/A,,Scattered Clouds,260,2012-10-24 02:28:00
9:54 PM,37.9,32.0,79,29.85,10.0,West,12.7,-,N/A,,Scattered Clouds,260,2012-10-24 02:54:00
10:54 PM,36.0,30.9,82,29.85,10.0,West,5.8,-,N/A,,Clear,260,2012-10-24 03:54:00
11:54 PM,35.1,30.0,82,29.88,10.0,WSW,9.2,-,N/A,,Clear,240,2012-10-24 04:54:00